Weather History for Saipan, MP

Change the Weather History Date:

Wednesday, November 20, 2013

  Actual Average Record
Temperature  
Mean Temperature 84 °F -  
Max Temperature 87 °F 84 °F 88 °F (2012)
Min Temperature 80 °F 76 °F 75 °F (2004)
Cooling Degree Days 18    
Growing Degree Days 34 (Base 50)    
Moisture  
Dew Point 74 °F    
Average Humidity 76    
Maximum Humidity 85    
Minimum Humidity 65    
Precipitation  
Precipitation 0.00 in - - ()
Sea Level Pressure  
Sea Level Pressure 29.95 in    
Wind  
Wind Speed 15 mph (NE)    
Max Wind Speed 21 mph    
Max Gust Speed 24 mph    
Visibility 10 miles    
Events      
Averages and records for this station are not official NWS values.
T = Trace of Precipitation, MM = Missing Value Source: NWS Daily Summary

Daily Weather History Graph

Daily Weather History Graph

Search for Another Location

Airport:

Trip Planner

Search our weather history database for the weather conditions in past years. The results will help you decide how hot, cold, wet, or windy it might be!

Date:

Astronomy

Nov. 20, 2013 Rise Set
Actual Time 6:21 AM ChST 5:44 PM ChST
Civil Twilight 5:58 AM ChST 6:06 PM ChST
Nautical Twilight 5:32 AM ChST 6:32 PM ChST
Astronomical Twilight 5:06 AM ChST 6:58 PM ChST
Moon 7:54 PM ChST (11/20) 8:14 AM ChST (11/20)
Length of Visible Light 12h 08m
Length of Day
11h 23m
Waning Gibbous, 94% of the Moon is Illuminated
Nov 20
Waning Gibbous
Nov 26
Last Quarter
Dec 3
New
Dec 10
First Quarter
Dec 17
Full

Hourly Weather History & Observations

Time (ChST) Temp. Heat Index Dew Point Humidity Pressure Visibility Wind Dir Wind Speed Gust Speed Precip Events Conditions
12:54 AM 80.1 °F 84.5 °F 73.9 °F 81% 29.97 in 10.0 mi ENE 13.8 mph - N/A   Partly Cloudy
1:54 AM 80.1 °F 84.5 °F 73.9 °F 81% 29.95 in 10.0 mi NE 11.5 mph - N/A   Partly Cloudy
2:54 AM 80.1 °F 85.1 °F 75.0 °F 85% 29.94 in 10.0 mi NE 11.5 mph - N/A   Scattered Clouds
3:54 AM 80.1 °F 84.5 °F 73.9 °F 81% 29.94 in 10.0 mi NE 10.4 mph - N/A   Partly Cloudy
4:54 AM 81.0 °F 86.7 °F 75.0 °F 82% 29.94 in 10.0 mi NE 16.1 mph 20.7 mph N/A   Scattered Clouds
5:54 AM 80.1 °F 84.5 °F 73.9 °F 81% 29.96 in 10.0 mi NE 11.5 mph - N/A   Mostly Cloudy
6:54 AM 80.1 °F 84.5 °F 73.9 °F 81% 29.96 in 10.0 mi NE 13.8 mph - N/A   Scattered Clouds
7:54 AM 82.9 °F 89.4 °F 73.9 °F 74% 29.98 in 10.0 mi ENE 15.0 mph - N/A   Partly Cloudy
8:54 AM 84.9 °F 93.3 °F 75.0 °F 72% 30.00 in 10.0 mi ENE 17.3 mph - N/A   Scattered Clouds
9:54 AM 86.0 °F 95.1 °F 75.0 °F 70% 29.99 in 10.0 mi ENE 19.6 mph - N/A   Partly Cloudy
10:54 AM 86.0 °F 96.0 °F 75.9 °F 72% 29.97 in 10.0 mi NE 18.4 mph 24.2 mph N/A   Scattered Clouds
11:54 AM 87.1 °F 97.3 °F 75.9 °F 69% 29.95 in 10.0 mi NE 17.3 mph - N/A   Scattered Clouds
12:54 PM 84.9 °F 92.1 °F 73.9 °F 69% 29.93 in 10.0 mi ENE 19.6 mph - N/A   Scattered Clouds
1:54 PM 86.0 °F 93.0 °F 73.0 °F 65% 29.91 in 10.0 mi ENE 20.7 mph - N/A   Scattered Clouds
2:54 PM 84.9 °F 91.4 °F 73.0 °F 67% 29.90 in 10.0 mi ENE 19.6 mph 24.2 mph N/A   Partly Cloudy
3:54 PM 84.9 °F 92.1 °F 73.9 °F 69% 29.90 in 10.0 mi NE 17.3 mph - N/A   Partly Cloudy
4:54 PM 82.9 °F 88.8 °F 73.0 °F 72% 29.91 in 10.0 mi NE 16.1 mph - N/A   Partly Cloudy
5:54 PM 82.0 °F 86.7 °F 72.0 °F 71% 29.94 in 10.0 mi ENE 16.1 mph 21.9 mph N/A   Scattered Clouds
6:54 PM 81.0 °F 85.8 °F 73.0 °F 77% 29.95 in 10.0 mi NE 15.0 mph - N/A   Partly Cloudy
7:54 PM 81.0 °F 85.8 °F 73.0 °F 77% 29.97 in 10.0 mi NE 16.1 mph - N/A   Scattered Clouds
8:54 PM 81.0 °F 85.8 °F 73.0 °F 77% 29.98 in 10.0 mi NE 13.8 mph - N/A   Partly Cloudy
9:54 PM 81.0 °F 86.2 °F 73.9 °F 79% 29.98 in 10.0 mi NE 16.1 mph - N/A   Partly Cloudy
10:54 PM 81.0 °F 86.2 °F 73.9 °F 79% 29.97 in 10.0 mi NE 13.8 mph - N/A   Partly Cloudy
11:25 PM 80.6 °F 85.4 °F 73.4 °F 79% 29.90 in 10.0 mi NE 15.0 mph - N/A   Mostly Cloudy
11:38 PM 80.6 °F 85.4 °F 73.4 °F 79% 29.90 in 10.0 mi NE 12.7 mph - N/A   Scattered Clouds
11:46 PM 80.6 °F 85.4 °F 73.4 °F 79% 29.90 in 10.0 mi NE 15.0 mph - N/A   Mostly Cloudy
11:54 PM 81.0 °F 86.2 °F 73.9 °F 79% 29.96 in 10.0 mi NE 12.7 mph - N/A   Scattered Clouds